| time (UTC) | temp F | wind direction | speed knots | gust knots | rain 1hr in | rain 24hr in | rain mn in | humidity % | barometer mb |
| 20260505070648 | 57 | 113 | 7.0 | 14.8 | 0.00 | 0.00 | 0.00 | 51 | 1007.8 |
| 20260505070121 | 58 | 43 | 7.0 | 14.8 | 0.00 | 0.00 | 0.00 | 50 | 1007.9 |
| 20260505065628 | 58 | 29 | 7.0 | 14.8 | 0.00 | 0.00 | 0.00 | 51 | 1007.9 |
| 20260505065132 | 58 | 315 | 6.1 | 14.8 | 0.00 | 0.00 | 0.00 | 50 | 1008.0 |
| 20260505064658 | 58 | 5 | 4.3 | 10.4 | 0.00 | 0.00 | 0.00 | 51 | 1007.9 |
| 20260505064124 | 58 | 355 | 6.1 | 12.2 | 0.00 | 0.00 | 0.00 | 49 | 1007.8 |
| 20260505063629 | 59 | 355 | 6.1 | 13.0 | 0.00 | 0.00 | 0.00 | 49 | 1007.8 |
| 20260505063154 | 59 | 18 | 6.1 | 14.8 | 0.00 | 0.00 | 0.00 | 48 | 1007.7 |
| 20260505062622 | 59 | 42 | 6.1 | 14.8 | 0.00 | 0.00 | 0.00 | 48 | 1007.8 |
| 20260505062125 | 59 | 355 | 6.1 | 14.8 | 0.00 | 0.00 | 0.00 | 47 | 1007.9 |
| 20260505061632 | 60 | 23 | 7.8 | 14.8 | 0.00 | 0.00 | 0.00 | 47 | 1007.9 |
| 20260505061137 | 60 | 48 | 5.2 | 12.2 | 0.00 | 0.00 | 0.00 | 46 | 1008.0 |
| 20260505060633 | 60 | 33 | 5.2 | 17.4 | 0.00 | 0.00 | 0.00 | 46 | 1008.0 |
| 20260505060128 | 60 | 84 | 7.8 | 17.4 | 0.00 | 0.00 | 0.00 | 45 | 1007.8 |
| 20260505055634 | 61 | 92 | 4.3 | 13.9 | 0.00 | 0.00 | 0.00 | 46 | 1007.7 |
| 20260505055140 | 61 | 53 | 7.0 | 13.9 | 0.00 | 0.00 | 0.00 | 46 | 1007.7 |
| 20260505054625 | 61 | 78 | 5.2 | 13.0 | 0.00 | 0.00 | 0.00 | 45 | 1007.6 |
| 20260505054152 | 61 | 46 | 4.3 | 18.2 | 0.00 | 0.00 | 0.00 | 44 | 1007.7 |
| 20260505053637 | 62 | 49 | 5.2 | 18.2 | 0.00 | 0.00 | 0.00 | 44 | 1007.7 |
| 20260505053144 | 62 | 69 | 5.2 | 17.4 | 0.00 | 0.00 | 0.00 | 43 | 1007.6 |
| 20260505052649 | 62 | 66 | 7.8 | 19.1 | 0.00 | 0.00 | 0.00 | 43 | 1007.5 |
| 20260505052134 | 63 | 19 | 9.6 | 19.1 | 0.00 | 0.00 | 0.00 | 42 | 1007.1 |
| 20260505051622 | 63 | 355 | 10.4 | 17.4 | 0.00 | 0.00 | 0.00 | 42 | 1006.9 |
| 20260505051127 | 63 | 29 | 7.0 | 16.5 | 0.00 | 0.00 | 0.00 | 42 | 1006.9 |
| 20260505050623 | 64 | 52 | 7.0 | 16.5 | 0.00 | 0.00 | 0.00 | 41 | 1006.5 |
| 20260505050139 | 64 | 22 | 6.1 | 15.6 | 0.00 | 0.00 | 0.00 | 41 | 1006.5 |
| 20260505041638 | 67 | 90 | 6.1 | 16.5 | 0.00 | 0.00 | 0.00 | 39 | 1004.6 |
| 20260505041144 | 67 | 57 | 8.7 | 18.2 | 0.00 | 0.00 | 0.00 | 39 | 1005.2 |
| 20260505040638 | 67 | 281 | 7.8 | 18.2 | 0.00 | 0.00 | 0.00 | 39 | 1005.4 |
| 20260505040134 | 68 | 21 | 7.8 | 16.5 | 0.00 | 0.00 | 0.00 | 39 | 1005.6 |
| 20260505035622 | 68 | 294 | 5.2 | 16.5 | 0.00 | 0.00 | 0.00 | 39 | 1005.7 |
| 20260505035128 | 68 | 42 | 7.0 | 16.5 | 0.00 | 0.00 | 0.00 | 39 | 1005.6 |
| 20260505034632 | 68 | 46 | 7.0 | 16.5 | 0.00 | 0.00 | 0.00 | 39 | 1005.4 |
| 20260505034139 | 68 | 22 | 5.2 | 9.6 | 0.00 | 0.00 | 0.00 | 40 | 1005.3 |
| 20260505033645 | 68 | 55 | 3.5 | 8.7 | 0.00 | 0.00 | 0.00 | 40 | 1005.3 |
| 20260505033128 | 69 | 35 | 3.5 | 11.3 | 0.00 | 0.00 | 0.00 | 40 | 1005.1 |
| 20260505032634 | 69 | 292 | 4.3 | 11.3 | 0.00 | 0.00 | 0.00 | 40 | 1005.0 |
| 20260505032140 | 69 | 45 | 3.5 | 11.3 | 0.00 | 0.00 | 0.00 | 40 | 1005.0 |
| 20260505031626 | 69 | 360 | 5.2 | 12.2 | 0.00 | 0.00 | 0.00 | 40 | 1004.8 |
| 20260505031133 | 70 | 17 | 5.2 | 12.2 | 0.00 | 0.00 | 0.00 | 41 | 1004.5 |
| 20260505030630 | 70 | 338 | 5.2 | 14.8 | 0.00 | 0.00 | 0.00 | 41 | 1004.2 |
| 20260505030126 | 71 | 355 | 3.5 | 14.8 | 0.00 | 0.00 | 0.00 | 40 | 1004.1 |
| 20260505025631 | 71 | 350 | 5.2 | 13.0 | 0.00 | 0.00 | 0.00 | 40 | 1003.9 |
| 20260505025140 | 71 | 25 | 5.2 | 13.0 | 0.00 | 0.00 | 0.00 | 40 | 1003.8 |
| 20260505024627 | 72 | 269 | 4.3 | 14.8 | 0.00 | 0.00 | 0.00 | 40 | 1003.4 |
| 20260505024132 | 72 | 50 | 6.1 | 14.8 | 0.00 | 0.00 | 0.00 | 39 | 1003.3 |
| 20260505023638 | 73 | 322 | 4.3 | 11.3 | 0.00 | 0.00 | 0.00 | 40 | 1003.2 |
| 20260505023124 | 73 | 41 | 4.3 | 13.0 | 0.00 | 0.00 | 0.00 | 40 | 1003.0 |
| 20260505022631 | 73 | 36 | 4.3 | 13.0 | 0.00 | 0.00 | 0.00 | 40 | 1002.9 |
| 20260505022135 | 73 | 34 | 7.0 | 12.2 | 0.00 | 0.00 | 0.00 | 41 | 1002.9 |
| 20260505021702 | 73 | 10 | 5.2 | 13.0 | 0.00 | 0.00 | 0.00 | 44 | 1002.7 |
| 20260505021126 | 73 | 19 | 4.3 | 13.0 | 0.00 | 0.00 | 0.00 | 46 | 1002.7 |
| 20260505020621 | 73 | 292 | 3.5 | 8.7 | 0.00 | 0.00 | 0.00 | 47 | 1002.5 |
| 20260505020137 | 73 | 17 | 3.5 | 8.7 | 0.00 | 0.00 | 0.00 | 51 | 1002.5 |
| 20260505015624 | 72 | 58 | 2.6 | 7.8 | 0.00 | 0.00 | 0.00 | 58 | 1002.4 |
| 20260505015133 | 71 | 294 | 0.9 | 2.6 | 0.00 | 0.00 | 0.00 | 61 | 1002.4 |
| 20260505014640 | 72 | 211 | 0.0 | 1.7 | 0.00 | 0.00 | 0.00 | 60 | 1001.9 |
| 20260505014147 | 72 | 211 | 0.9 | 1.7 | 0.00 | 0.00 | 0.00 | 59 | 1001.8 |
| 20260505013632 | 73 | 211 | 0.0 | 1.7 | 0.00 | 0.00 | 0.00 | 59 | 1001.8 |
| 20260505013137 | 73 | 211 | 0.9 | 1.7 | 0.00 | 0.00 | 0.00 | 58 | 1001.8 |
| 20260505012643 | 73 | 211 | 0.9 | 1.7 | 0.00 | 0.00 | 0.00 | 58 | 1001.7 |
| 20260505012126 | 73 | 211 | 0.9 | 0.9 | 0.00 | 0.00 | 0.00 | 58 | 1001.8 |
| 20260505011653 | 73 | 211 | 0.0 | 0.9 | 0.00 | 0.00 | 0.00 | 58 | 1001.6 |
| 20260505011137 | 74 | 211 | 0.0 | 1.7 | 0.00 | 0.00 | 0.00 | 57 | 1001.5 |
| 20260505010633 | 74 | 211 | 0.9 | 1.7 | 0.00 | 0.00 | 0.00 | 56 | 1001.5 |
| 20260505010129 | 74 | 198 | 0.9 | 1.7 | 0.00 | 0.00 | 0.00 | 56 | 1001.4 |
| 20260505005655 | 74 | 198 | 0.9 | 0.9 | 0.00 | 0.00 | 0.00 | 56 | 1001.5 |
| 20260505005140 | 74 | 198 | 0.0 | 0.9 | 0.00 | 0.00 | 0.00 | 54 | 1001.4 |
| 20260505004626 | 74 | 198 | 0.0 | 0.9 | 0.00 | 0.00 | 0.00 | 54 | 1001.3 |
| 20260505004135 | 75 | 198 | 0.0 | 0.9 | 0.00 | 0.00 | 0.00 | 53 | 1001.3 |
| 20260505003621 | 75 | 198 | 0.0 | 0.9 | 0.00 | 0.00 | 0.00 | 52 | 1001.2 |
| 20260505003126 | 76 | 188 | 0.0 | 0.9 | 0.00 | 0.00 | 0.00 | 51 | 1001.3 |
| 20260505002653 | 76 | 188 | 0.0 | 0.9 | 0.00 | 0.00 | 0.00 | 50 | 1001.4 |
| 20260505002139 | 76 | 201 | 0.0 | 0.9 | 0.00 | 0.00 | 0.00 | 51 | 1001.4 |
| 20260505001626 | 77 | 201 | 0.0 | 0.9 | 0.00 | 0.00 | 0.00 | 50 | 1001.4 |
| 20260505001132 | 77 | 202 | 0.0 | 0.9 | 0.00 | 0.00 | 0.00 | 51 | 1001.4 |
| 20260505000628 | 77 | 206 | 0.0 | 0.9 | 0.00 | 0.00 | 0.00 | 50 | 1001.4 |
| 20260505000125 | 77 | 206 | 0.0 | 0.9 | 0.00 | 0.00 | 0.00 | 50 | 1001.4 |
| 20260504235632 | 77 | 206 | 0.0 | 1.7 | 0.00 | 0.00 | 0.00 | 50 | 1001.5 |
| 20260504235158 | 77 | 206 | 0.9 | 1.7 | 0.00 | 0.00 | 0.00 | 51 | 1001.5 |
| 20260504234623 | 77 | 205 | 0.9 | 1.7 | 0.00 | 0.00 | 0.00 | 49 | 1001.5 |
| 20260504234133 | 77 | 187 | 0.9 | 1.7 | 0.00 | 0.00 | 0.00 | 49 | 1001.5 |
| 20260504233640 | 78 | 134 | 0.9 | 1.7 | 0.00 | 0.00 | 0.00 | 49 | 1001.5 |
| 20260504233126 | 78 | 232 | 0.0 | 2.6 | 0.00 | 0.00 | 0.00 | 49 | 1001.5 |
| 20260504232632 | 79 | 240 | 0.9 | 2.6 | 0.00 | 0.00 | 0.00 | 46 | 1001.6 |
| 20260504232138 | 79 | 158 | 0.9 | 2.6 | 0.00 | 0.00 | 0.00 | 49 | 1001.5 |
| 20260504231623 | 79 | 210 | 0.9 | 2.6 | 0.00 | 0.00 | 0.00 | 49 | 1001.4 |
| 20260504231150 | 79 | 211 | 0.9 | 2.6 | 0.00 | 0.00 | 0.00 | 47 | 1001.4 |
| 20260504230626 | 79 | 268 | 0.9 | 4.3 | 0.00 | 0.00 | 0.00 | 46 | 1001.4 |
| 20260504230123 | 80 | 150 | 2.6 | 4.3 | 0.00 | 0.00 | 0.00 | 42 | 1001.4 |
| 20260504225629 | 80 | 243 | 0.9 | 2.6 | 0.00 | 0.00 | 0.00 | 42 | 1001.5 |
| 20260504225157 | 81 | 234 | 0.9 | 3.5 | 0.00 | 0.00 | 0.00 | 40 | 1001.4 |
| 20260504224638 | 81 | 114 | 0.9 | 8.7 | 0.00 | 0.00 | 0.00 | 41 | 1001.4 |
| 20260504224144 | 82 | 49 | 1.7 | 8.7 | 0.00 | 0.00 | 0.00 | 37 | 1001.3 |
| 20260504223632 | 82 | 120 | 1.7 | 3.5 | 0.00 | 0.00 | 0.00 | 38 | 1001.2 |
| 20260504223138 | 81 | 126 | 1.7 | 3.5 | 0.00 | 0.00 | 0.00 | 37 | 1001.2 |
| 20260504222634 | 81 | 126 | 1.7 | 2.6 | 0.00 | 0.00 | 0.00 | 42 | 1001.1 |
| 20260504222201 | 81 | 144 | 1.7 | 5.2 | 0.00 | 0.00 | 0.00 | 37 | 1001.2 |
| 20260504221626 | 81 | 132 | 0.9 | 5.2 | 0.00 | 0.00 | 0.00 | 41 | 1001.3 |
| 20260504221132 | 80 | 164 | 0.9 | 2.6 | 0.00 | 0.00 | 0.00 | 41 | 1001.1 |
| 20260504220649 | 80 | 153 | 0.9 | 2.6 | 0.00 | 0.00 | 0.00 | 42 | 1001.3 |
| 20260504220133 | 80 | 134 | 0.9 | 2.6 | 0.00 | 0.00 | 0.00 | 47 | 1001.2 |
| 20260504215641 | 80 | 248 | 0.0 | 1.7 | 0.00 | 0.00 | 0.00 | 45 | 1001.3 |
| 20260504215126 | 80 | 266 | 0.0 | 2.6 | 0.00 | 0.00 | 0.00 | 44 | 1001.3 |
| 20260504214633 | 81 | 244 | 1.7 | 3.5 | 0.00 | 0.00 | 0.00 | 43 | 1001.3 |
| 20260504214140 | 81 | 139 | 1.7 | 6.1 | 0.00 | 0.00 | 0.00 | 41 | 1001.4 |
| 20260504213620 | 82 | 129 | 1.7 | 6.1 | 0.00 | 0.00 | 0.00 | 41 | 1001.5 |
| 20260504213127 | 82 | 132 | 0.9 | 3.5 | 0.00 | 0.00 | 0.00 | 38 | 1001.5 |
| 20260504212633 | 82 | 135 | 0.9 | 4.3 | 0.00 | 0.00 | 0.00 | 38 | 1001.6 |
| 20260504212159 | 82 | 123 | 1.7 | 4.3 | 0.00 | 0.00 | 0.00 | 43 | 1001.5 |
| 20260504211624 | 83 | 122 | 0.9 | 4.3 | 0.00 | 0.00 | 0.00 | 38 | 1001.5 |
| 20260504211132 | 83 | 109 | 0.9 | 3.5 | 0.00 | 0.00 | 0.00 | 38 | 1001.5 |
| 20260504210627 | 82 | 56 | 0.9 | 1.7 | 0.00 | 0.00 | 0.00 | 37 | 1001.5 |
| 20260504210144 | 82 | 322 | 0.9 | 2.6 | 0.00 | 0.00 | 0.00 | 39 | 1001.7 |
| 20260504205627 | 83 | 51 | 1.7 | 4.3 | 0.00 | 0.00 | 0.00 | 39 | 1001.8 |
| 20260504205133 | 83 | 347 | 1.7 | 6.1 | 0.00 | 0.00 | 0.00 | 37 | 1001.8 |
| 20260504204700 | 83 | 229 | 0.9 | 6.1 | 0.00 | 0.00 | 0.00 | 37 | 1001.8 |
| 20260504204123 | 82 | 180 | 1.7 | 2.6 | 0.00 | 0.00 | 0.00 | 36 | 1001.9 |
| 20260504203629 | 82 | 119 | 0.9 | 3.5 | 0.00 | 0.00 | 0.00 | 37 | 1002.1 |
| 20260504203136 | 83 | 78 | 2.6 | 3.5 | 0.00 | 0.00 | 0.00 | 36 | 1001.9 |
| 20260504202641 | 82 | 69 | 0.9 | 3.5 | 0.00 | 0.00 | 0.00 | 38 | 1002.1 |
| 20260504202131 | 83 | 40 | 2.6 | 5.2 | 0.00 | 0.00 | 0.00 | 35 | 1002.1 |
| 20260504201636 | 83 | 128 | 1.7 | 5.2 | 0.00 | 0.00 | 0.00 | 34 | 1002.2 |
| 20260504201122 | 83 | 63 | 0.9 | 2.6 | 0.00 | 0.00 | 0.00 | 36 | 1002.2 |
| 20260504200638 | 83 | 296 | 0.9 | 2.6 | 0.00 | 0.00 | 0.00 | 40 | 1002.2 |
| 20260504200134 | 82 | 156 | 0.0 | 2.6 | 0.00 | 0.00 | 0.00 | 38 | 1002.2 |
| 20260504195621 | 83 | 19 | 0.9 | 3.5 | 0.00 | 0.00 | 0.00 | 42 | 1002.2 |
| 20260504195128 | 83 | 17 | 1.7 | 4.3 | 0.00 | 0.00 | 0.00 | 34 | 1002.4 |
| 20260504194634 | 84 | 51 | 0.9 | 4.3 | 0.00 | 0.00 | 0.00 | 35 | 1002.3 |
| 20260504194139 | 84 | 19 | 1.7 | 4.3 | 0.00 | 0.00 | 0.00 | 33 | 1002.4 |
| 20260504193626 | 84 | 313 | 0.9 | 3.5 | 0.00 | 0.00 | 0.00 | 32 | 1002.5 |
| 20260504193132 | 83 | 51 | 0.9 | 4.3 | 0.00 | 0.00 | 0.00 | 35 | 1002.4 |
| 20260504192622 | 82 | 355 | 0.9 | 4.3 | 0.00 | 0.00 | 0.00 | 35 | 1002.5 |
| 20260504192129 | 82 | 13 | 0.9 | 2.6 | 0.00 | 0.00 | 0.00 | 33 | 1002.4 |
| 20260504191634 | 81 | 273 | 0.9 | 2.6 | 0.00 | 0.00 | 0.00 | 39 | 1002.5 |
| 20260504191121 | 82 | 266 | 0.0 | 1.7 | 0.00 | 0.00 | 0.00 | 41 | 1002.5 |
| 20260504190635 | 83 | 145 | 0.0 | 3.5 | 0.00 | 0.00 | 0.00 | 37 | 1002.4 |
| 20260504190152 | 84 | 279 | 0.9 | 3.5 | 0.00 | 0.00 | 0.00 | 30 | 1002.6 |
| 20260504185637 | 84 | 310 | 1.7 | 5.2 | 0.00 | 0.00 | 0.00 | 34 | 1002.6 |
| 20260504185124 | 84 | 313 | 2.6 | 5.2 | 0.00 | 0.00 | 0.00 | 33 | 1002.5 |
| 20260504184629 | 84 | 47 | 2.6 | 3.5 | 0.00 | 0.00 | 0.00 | 32 | 1002.6 |
| 20260504184137 | 84 | 355 | 1.7 | 5.2 | 0.00 | 0.00 | 0.00 | 30 | 1002.6 |
| 20260504183621 | 85 | 54 | 1.7 | 6.1 | 0.00 | 0.00 | 0.00 | 33 | 1002.7 |
| 20260504183127 | 85 | 336 | 2.6 | 6.1 | 0.00 | 0.00 | 0.00 | 33 | 1002.6 |
| 20260504182636 | 84 | 95 | 1.7 | 6.1 | 0.00 | 0.00 | 0.00 | 37 | 1002.5 |
| 20260504182123 | 83 | 59 | 0.9 | 7.0 | 0.00 | 0.00 | 0.00 | 35 | 1002.5 |
| 20260504181648 | 84 | 316 | 0.9 | 7.0 | 0.00 | 0.00 | 0.00 | 36 | 1002.7 |
| 20260504181135 | 83 | 78 | 1.7 | 4.3 | 0.00 | 0.00 | 0.00 | 33 | 1002.6 |
| 20260504180631 | 83 | 263 | 1.7 | 3.5 | 0.00 | 0.00 | 0.00 | 34 | 1002.6 |
| 20260504180126 | 82 | 305 | 1.7 | 3.5 | 0.00 | 0.00 | 0.00 | 42 | 1002.5 |
| 20260504175631 | 83 | 49 | 1.7 | 3.5 | 0.00 | 0.00 | 0.00 | 38 | 1002.6 |
| 20260504175135 | 83 | 277 | 1.7 | 3.5 | 0.00 | 0.00 | 0.00 | 43 | 1002.7 |
| 20260504174621 | 82 | 235 | 0.9 | 7.0 | 0.00 | 0.00 | 0.00 | 43 | 1002.7 |
| 20260504174127 | 82 | 340 | 2.6 | 7.0 | 0.00 | 0.00 | 0.00 | 39 | 1002.8 |
| 20260504173633 | 81 | 38 | 2.6 | 5.2 | 0.00 | 0.00 | 0.00 | 42 | 1002.8 |
| 20260504173122 | 81 | 69 | 1.7 | 2.6 | 0.00 | 0.00 | 0.00 | 44 | 1002.8 |
| 20260504172627 | 80 | 254 | 0.9 | 4.3 | 0.00 | 0.00 | 0.00 | 44 | 1002.7 |
| 20260504172133 | 80 | 254 | 0.9 | 3.5 | 0.00 | 0.00 | 0.00 | 47 | 1002.7 |
| 20260504171638 | 79 | 228 | 1.7 | 3.5 | 0.00 | 0.00 | 0.00 | 46 | 1003.0 |
| 20260504171124 | 79 | 271 | 0.9 | 3.5 | 0.00 | 0.00 | 0.00 | 47 | 1003.0 |
| 20260504170639 | 79 | 281 | 1.7 | 3.5 | 0.00 | 0.00 | 0.00 | 46 | 1003.1 |
| 20260504170134 | 79 | 218 | 0.9 | 3.5 | 0.00 | 0.00 | 0.00 | 47 | 1003.1 |
| 20260504160124 | 73 | 280 | 0.9 | 2.6 | 0.00 | 0.00 | 0.00 | 52 | 1003.5 |
| 20260504151126 | 70 | 248 | 0.9 | 3.5 | 0.00 | 0.00 | 0.00 | 57 | 1003.3 |
| 20260504150621 | 70 | 238 | 0.9 | 3.5 | 0.00 | 0.00 | 0.00 | 58 | 1003.4 |
| 20260504150139 | 70 | 244 | 0.9 | 2.6 | 0.00 | 0.00 | 0.00 | 57 | 1003.4 |
| 20260504141154 | 66 | 239 | 0.9 | 2.6 | 0.00 | 0.00 | 0.00 | 65 | 1003.4 |
| 20260504140628 | 65 | 286 | 0.9 | 1.7 | 0.00 | 0.00 | 0.00 | 68 | 1003.4 |
| 20260504140126 | 65 | 207 | 0.9 | 2.6 | 0.00 | 0.00 | 0.00 | 68 | 1003.4 |
| 20260504130626 | 60 | 245 | 0.9 | 1.7 | 0.00 | 0.00 | 0.00 | 73 | 1003.0 |
| 20260504130123 | 59 | 298 | 0.0 | 1.7 | 0.00 | 0.00 | 0.00 | 74 | 1003.0 |
| 20260504120138 | 56 | 213 | 0.9 | 2.6 | 0.00 | 0.00 | 0.00 | 77 | 1002.3 |
| 20260504110640 | 51 | 168 | 0.9 | 1.7 | 0.00 | 0.00 | 0.00 | 85 | 1002.7 |
| 20260504110157 | 51 | 168 | 0.0 | 1.7 | 0.00 | 0.00 | 0.00 | 85 | 1002.8 |
| 20260504100131 | 53 | 41 | 0.0 | 2.6 | 0.00 | 0.00 | 0.00 | 81 | 1003.3 |
| 20260504090121 | 54 | 246 | 0.9 | 0.9 | 0.00 | 0.00 | 0.00 | 82 | 1003.9 |
| 20260504081637 | 55 | 273 | 1.7 | 2.6 | 0.00 | 0.00 | 0.00 | 78 | 1004.3 |
| 20260504081123 | 56 | 282 | 0.9 | 1.7 | 0.00 | 0.00 | 0.00 | 76 | 1004.2 |
| 20260504080620 | 57 | 282 | 0.0 | 1.7 | 0.00 | 0.00 | 0.00 | 75 | 1004.1 |
| 20260504080136 | 57 | 282 | 0.9 | 1.7 | 0.00 | 0.00 | 0.00 | 75 | 1004.0 |